UAL2144 KMIA-KIAD

Flight info

Callsign UAL2144
Flight time 2h 3m
Altitude 34000
Route FOLZZ3 ALYRA/N0453F360 GRUBR/N0451F350 Y299 SEELO GARIC Q129 YERBA MAYKR TRSSK CAVLR6
Aircraft B739/M-SDE2E3FGHIRWXY/LB1

Departure

Time 2026-05-07 13:20
Airport Miami International Airport (KMIA)

Arrival

Time 2026-05-07 15:24
Airport Washington Dulles International Airport (KIAD)
Time Latitude Longitude Altitude Speed Heading
2026-05-07 12:48 25.79003 -80.27745 14 ft 0 kts 108°
2026-05-07 13:07 25.79009 -80.27766 14 ft 4 kts 108°
2026-05-07 13:08 25.79016 -80.27790 14 ft 4 kts 94°
2026-05-07 13:08 25.79009 -80.27814 14 ft 4 kts 39°
2026-05-07 13:08 25.78994 -80.27825 14 ft 0 kts 22°
2026-05-07 13:11 25.78998 -80.27844 14 ft 9 kts 247°
2026-05-07 13:12 25.78950 -80.27898 15 ft 10 kts 235°
2026-05-07 13:12 25.78947 -80.27971 15 ft 10 kts 294°
2026-05-07 13:12 25.78983 -80.28036 15 ft 10 kts 304°
2026-05-07 13:12 25.79026 -80.28106 15 ft 13 kts 303°
2026-05-07 13:13 25.79070 -80.28190 15 ft 12 kts 299°
2026-05-07 13:13 25.79111 -80.28273 16 ft 12 kts 299°
2026-05-07 13:13 25.79152 -80.28354 14 ft 12 kts 299°
2026-05-07 13:13 25.79203 -80.28424 14 ft 12 kts 315°
2026-05-07 13:14 25.79255 -80.28490 14 ft 11 kts 303°
2026-05-07 13:14 25.79296 -80.28563 15 ft 11 kts 300°
2026-05-07 13:14 25.79333 -80.28635 14 ft 11 kts 300°
2026-05-07 13:14 25.79370 -80.28705 15 ft 10 kts 300°
2026-05-07 13:15 25.79406 -80.28773 15 ft 10 kts 300°
2026-05-07 13:15 25.79440 -80.28839 14 ft 10 kts 299°
2026-05-07 13:15 25.79473 -80.28904 15 ft 9 kts 299°
2026-05-07 13:15 25.79504 -80.28967 15 ft 9 kts 298°
2026-05-07 13:16 25.79534 -80.29029 15 ft 9 kts 299°
2026-05-07 13:16 25.79565 -80.29088 15 ft 9 kts 301°
2026-05-07 13:16 25.79595 -80.29146 16 ft 8 kts 298°
2026-05-07 13:16 25.79623 -80.29202 15 ft 8 kts 298°
2026-05-07 13:17 25.79654 -80.29260 14 ft 10 kts 301°
2026-05-07 13:17 25.79689 -80.29327 15 ft 10 kts 301°
2026-05-07 13:17 25.79726 -80.29400 15 ft 14 kts 298°
2026-05-07 13:17 25.79788 -80.29526 14 ft 22 kts 300°
2026-05-07 13:18 25.79862 -80.29668 14 ft 21 kts 300°
2026-05-07 13:18 25.79926 -80.29812 15 ft 20 kts 292°
2026-05-07 13:18 25.79974 -80.29954 12 ft 20 kts 284°
2026-05-07 13:18 25.79984 -80.30081 14 ft 0 kts 294°
2026-05-07 13:19 25.80010 -80.30142 14 ft 11 kts 303°
2026-05-07 13:19 25.80071 -80.30126 14 ft 11 kts 58°
2026-05-07 13:19 25.80084 -80.30000 12 ft 37 kts 85°
2026-05-07 13:20 25.80113 -80.29474 13 ft 98 kts 88°
2026-05-07 13:20 25.80140 -80.28538 15 ft 143 kts 88°
2026-05-07 13:20 25.80192 -80.27320 147 ft 165 kts 88°
2026-05-07 13:20 25.80174 -80.26081 694 ft 159 kts 100°
2026-05-07 13:21 25.79922 -80.24852 996 ft 170 kts 110°
2026-05-07 13:21 25.79395 -80.23646 1335 ft 178 kts 117°
2026-05-07 13:21 25.78822 -80.22413 1747 ft 183 kts 117°
2026-05-07 13:21 25.78211 -80.21082 1930 ft 204 kts 117°
2026-05-07 13:22 25.77540 -80.19616 2094 ft 223 kts 117°
2026-05-07 13:22 25.76808 -80.18010 2250 ft 244 kts 118°
2026-05-07 13:22 25.75967 -80.16293 2587 ft 260 kts 119°
2026-05-07 13:22 25.75087 -80.14526 3212 ft 263 kts 119°
2026-05-07 13:23 25.74278 -80.12690 3810 ft 269 kts 105°
2026-05-07 13:23 25.74253 -80.10634 4455 ft 271 kts 74°
2026-05-07 13:23 25.75158 -80.08801 5066 ft 275 kts 53°
2026-05-07 13:23 25.76375 -80.07151 5678 ft 278 kts 50°
2026-05-07 13:24 25.77646 -80.05522 6295 ft 282 kts 48°
2026-05-07 13:24 25.78966 -80.03900 7012 ft 282 kts 48°
2026-05-07 13:24 25.80303 -80.02291 7681 ft 286 kts 48°
2026-05-07 13:24 25.81627 -80.00645 8484 ft 287 kts 49°
2026-05-07 13:25 25.82924 -79.98983 9041 ft 292 kts 49°
2026-05-07 13:25 25.84275 -79.97283 9642 ft 295 kts 48°
2026-05-07 13:25 25.85633 -79.95579 10320 ft 295 kts 48°
2026-05-07 13:25 25.87002 -79.93854 10852 ft 304 kts 48°
2026-05-07 13:26 25.88441 -79.92035 10976 ft 324 kts 48°
2026-05-07 13:26 25.89963 -79.90106 11221 ft 338 kts 49°
2026-05-07 13:26 25.91528 -79.88118 11684 ft 344 kts 49°
2026-05-07 13:26 25.93105 -79.86112 12365 ft 345 kts 49°
2026-05-07 13:27 25.94687 -79.84097 12979 ft 347 kts 49°
2026-05-07 13:27 25.96282 -79.82062 13547 ft 351 kts 49°
2026-05-07 13:27 25.97893 -79.80008 14124 ft 354 kts 48°
2026-05-07 13:27 25.99519 -79.77933 14687 ft 358 kts 48°
2026-05-07 13:28 26.01164 -79.75834 15266 ft 362 kts 47°
2026-05-07 13:28 26.02824 -79.73715 15840 ft 365 kts 47°
2026-05-07 13:28 26.04498 -79.71577 16393 ft 369 kts 47°
2026-05-07 13:28 26.06188 -79.69417 16944 ft 372 kts 46°
2026-05-07 13:29 26.07895 -79.67234 17468 ft 376 kts 46°
2026-05-07 13:29 26.09622 -79.65026 17978 ft 379 kts 46°
2026-05-07 13:29 26.11338 -79.62779 18481 ft 384 kts 49°
2026-05-07 13:29 26.12935 -79.60366 18949 ft 389 kts 52°
2026-05-07 13:30 26.14479 -79.57874 19405 ft 394 kts 52°
2026-05-07 13:30 26.16011 -79.55373 19845 ft 397 kts 52°
2026-05-07 13:30 26.17607 -79.52792 20273 ft 401 kts 51°
2026-05-07 13:30 26.19189 -79.50263 20694 ft 405 kts 51°
2026-05-07 13:31 26.20813 -79.47685 21109 ft 409 kts 51°
2026-05-07 13:31 26.22459 -79.45085 21509 ft 412 kts 51°
2026-05-07 13:31 26.24118 -79.42466 21906 ft 415 kts 51°
2026-05-07 13:31 26.25790 -79.39825 22288 ft 419 kts 51°
2026-05-07 13:32 26.27473 -79.37167 22668 ft 422 kts 51°
2026-05-07 13:32 26.29308 -79.34627 22990 ft 419 kts 37°
2026-05-07 13:32 26.31669 -79.32791 23343 ft 414 kts 26°
2026-05-07 13:32 26.34130 -79.31105 23735 ft 416 kts 27°
2026-05-07 13:33 26.36598 -79.29392 24067 ft 419 kts 27°
2026-05-07 13:33 26.39074 -79.27657 24391 ft 422 kts 27°
2026-05-07 13:33 26.41564 -79.25898 24736 ft 424 kts 27°
2026-05-07 13:33 26.44058 -79.24127 25095 ft 426 kts 27°
2026-05-07 13:34 26.46559 -79.22345 25438 ft 428 kts 27°
2026-05-07 13:34 26.51600 -79.18745 26100 ft 432 kts 27°
2026-05-07 13:34 26.54138 -79.16931 26413 ft 434 kts 27°
2026-05-07 13:35 26.56690 -79.15104 26749 ft 436 kts 27°
2026-05-07 13:35 26.59253 -79.13271 27067 ft 438 kts 27°
2026-05-07 13:35 26.61824 -79.11431 27384 ft 441 kts 27°
2026-05-07 13:35 26.64412 -79.09579 27666 ft 443 kts 27°
2026-05-07 13:36 26.67009 -79.07719 27968 ft 444 kts 27°
2026-05-07 13:36 26.69619 -79.05849 28259 ft 446 kts 27°
2026-05-07 13:36 26.72238 -79.03971 28540 ft 448 kts 27°
2026-05-07 13:36 26.74872 -79.02081 28820 ft 450 kts 27°
2026-05-07 13:37 26.77517 -79.00182 29091 ft 452 kts 27°
2026-05-07 13:37 26.80132 -78.98303 29369 ft 454 kts 27°
2026-05-07 13:37 26.82799 -78.96385 29644 ft 456 kts 27°
2026-05-07 13:37 26.85472 -78.94463 29915 ft 457 kts 27°
2026-05-07 13:38 26.88151 -78.92534 30196 ft 458 kts 27°
2026-05-07 13:38 26.90839 -78.90596 30562 ft 458 kts 27°
2026-05-07 13:38 26.93508 -78.88673 30952 ft 456 kts 27°
2026-05-07 13:38 26.96175 -78.86751 31346 ft 455 kts 27°
2026-05-07 13:39 26.98829 -78.84835 31730 ft 453 kts 27°
2026-05-07 13:39 27.01483 -78.82920 32095 ft 453 kts 27°
2026-05-07 13:39 27.04128 -78.81010 32463 ft 452 kts 27°
2026-05-07 13:39 27.06770 -78.79101 32864 ft 450 kts 27°
2026-05-07 13:40 27.09398 -78.77201 33233 ft 449 kts 27°
2026-05-07 13:40 27.12022 -78.75303 33537 ft 449 kts 27°
2026-05-07 13:40 27.14645 -78.73406 33823 ft 449 kts 27°
2026-05-07 13:40 27.17265 -78.71507 34104 ft 447 kts 27°
2026-05-07 13:41 27.19885 -78.69608 34083 ft 449 kts 27°
2026-05-07 13:41 27.25130 -78.65806 34098 ft 447 kts 27°
2026-05-07 13:42 27.30624 -78.62928 34117 ft 425 kts
2026-05-07 13:42 27.36466 -78.62158 34109 ft 422 kts
2026-05-07 13:43 27.42263 -78.61491 34103 ft 422 kts
2026-05-07 13:43 27.48106 -78.60779 34101 ft 423 kts
2026-05-07 13:44 27.53968 -78.60030 34103 ft 423 kts
2026-05-07 13:44 27.59828 -78.59276 34106 ft 424 kts
2026-05-07 13:45 27.65701 -78.58510 34102 ft 425 kts
2026-05-07 13:45 27.71580 -78.57743 34103 ft 425 kts
2026-05-07 13:46 27.77463 -78.56976 34101 ft 425 kts
2026-05-07 13:46 27.83342 -78.56208 34100 ft 425 kts
2026-05-07 13:47 27.89190 -78.55445 34090 ft 425 kts
2026-05-07 13:47 27.95065 -78.54676 34088 ft 424 kts
2026-05-07 13:48 28.00926 -78.53909 34095 ft 424 kts
2026-05-07 13:48 28.06774 -78.53141 34085 ft 423 kts
2026-05-07 13:49 28.12622 -78.52375 34082 ft 422 kts
2026-05-07 13:49 28.18450 -78.51611 34082 ft 422 kts
2026-05-07 13:50 28.24273 -78.50847 34084 ft 421 kts
2026-05-07 13:50 28.30089 -78.50083 34072 ft 420 kts
2026-05-07 13:51 28.35908 -78.49320 34075 ft 421 kts
2026-05-07 13:51 28.41736 -78.48548 34077 ft 422 kts
2026-05-07 13:52 28.47583 -78.47775 34075 ft 423 kts
2026-05-07 13:52 28.53434 -78.47002 34084 ft 424 kts
2026-05-07 13:53 28.59306 -78.46226 34077 ft 425 kts
2026-05-07 13:53 28.65154 -78.45452 34074 ft 426 kts
2026-05-07 13:54 28.71049 -78.44669 34065 ft 427 kts
2026-05-07 13:54 28.76953 -78.43882 34064 ft 427 kts
2026-05-07 13:55 28.82869 -78.43097 34065 ft 428 kts
2026-05-07 13:55 28.88793 -78.42313 34065 ft 429 kts
2026-05-07 13:56 28.94725 -78.41522 34067 ft 429 kts
2026-05-07 13:56 28.99663 -78.40861 34060 ft 429 kts
2026-05-07 13:57 29.05599 -78.40068 34062 ft 430 kts
2026-05-07 13:57 29.11557 -78.39273 34055 ft 430 kts
2026-05-07 13:58 29.17511 -78.38477 34055 ft 431 kts
2026-05-07 13:58 29.23481 -78.37677 34057 ft 432 kts
2026-05-07 13:59 29.29453 -78.36875 34056 ft 432 kts
2026-05-07 13:59 29.35438 -78.36072 34054 ft 433 kts
2026-05-07 14:00 29.41427 -78.35266 34057 ft 434 kts
2026-05-07 14:00 29.47392 -78.34485 34053 ft 432 kts 356°
2026-05-07 14:00 29.50331 -78.34734 34059 ft 417 kts 340°
2026-05-07 14:01 29.53144 -78.35637 34052 ft 416 kts 338°
2026-05-07 14:01 29.58661 -78.37499 34045 ft 416 kts 338°
2026-05-07 14:02 29.64232 -78.39354 34052 ft 417 kts 338°
2026-05-07 14:02 29.69818 -78.41179 34033 ft 418 kts 339°
2026-05-07 14:03 29.75418 -78.43000 34045 ft 418 kts 338°
2026-05-07 14:03 29.81018 -78.44822 34047 ft 418 kts 338°
2026-05-07 14:04 29.86628 -78.46650 34046 ft 419 kts 338°
2026-05-07 14:04 29.92230 -78.48479 34048 ft 419 kts 338°
2026-05-07 14:05 29.97837 -78.50311 34046 ft 418 kts 338°
2026-05-07 14:05 30.03436 -78.52142 34038 ft 418 kts 338°
2026-05-07 14:06 30.09037 -78.53976 34037 ft 418 kts 338°
2026-05-07 14:06 30.14742 -78.55458 34036 ft 426 kts 348°
2026-05-07 14:07 30.20701 -78.55197 34055 ft 437 kts
2026-05-07 14:07 30.26741 -78.54246 34021 ft 438 kts
2026-05-07 14:08 30.32796 -78.53327 34008 ft 438 kts
2026-05-07 14:08 30.38844 -78.52455 34012 ft 438 kts
2026-05-07 14:09 30.44893 -78.51564 34021 ft 438 kts
2026-05-07 14:09 30.50941 -78.50584 34016 ft 439 kts
2026-05-07 14:10 30.56991 -78.49589 34014 ft 439 kts
2026-05-07 14:10 30.63046 -78.48600 34010 ft 439 kts
2026-05-07 14:11 30.69100 -78.47617 34009 ft 440 kts
2026-05-07 14:11 30.75161 -78.46632 33998 ft 440 kts
2026-05-07 14:12 30.81234 -78.45647 33999 ft 440 kts
2026-05-07 14:12 30.87302 -78.44660 34002 ft 440 kts
2026-05-07 14:13 30.93326 -78.43680 33999 ft 440 kts
2026-05-07 14:13 30.99388 -78.42690 34002 ft 440 kts
2026-05-07 14:14 31.05474 -78.41697 33991 ft 441 kts
2026-05-07 14:14 31.11559 -78.40701 33991 ft 442 kts
2026-05-07 14:15 31.17650 -78.39702 33989 ft 442 kts
2026-05-07 14:15 31.23752 -78.38702 33979 ft 443 kts
2026-05-07 14:16 31.29856 -78.37701 33969 ft 443 kts
2026-05-07 14:16 31.35960 -78.36697 33972 ft 443 kts
2026-05-07 14:17 31.42077 -78.35689 33974 ft 443 kts
2026-05-07 14:17 31.48147 -78.34688 33972 ft 444 kts
2026-05-07 14:18 31.54262 -78.33679 33972 ft 444 kts
2026-05-07 14:18 31.60378 -78.32666 33974 ft 444 kts
2026-05-07 14:19 31.66508 -78.31651 33967 ft 444 kts
2026-05-07 14:19 31.72632 -78.30638 33964 ft 445 kts
2026-05-07 14:20 31.78761 -78.29621 33965 ft 445 kts
2026-05-07 14:20 31.84890 -78.28600 33961 ft 445 kts
2026-05-07 14:21 31.91029 -78.27579 33965 ft 445 kts
2026-05-07 14:21 31.97166 -78.26557 33954 ft 445 kts
2026-05-07 14:22 32.03296 -78.25538 33957 ft 445 kts
2026-05-07 14:22 32.09435 -78.24622 33947 ft 445 kts 359°
2026-05-07 14:23 32.15583 -78.23750 33935 ft 445 kts 359°
2026-05-07 14:23 32.21728 -78.22869 33936 ft 445 kts 360°
2026-05-07 14:24 32.27825 -78.21975 33949 ft 444 kts 360°
2026-05-07 14:24 32.33957 -78.21081 33954 ft 444 kts 360°
2026-05-07 14:25 32.40093 -78.20184 33958 ft 444 kts 360°
2026-05-07 14:25 32.46228 -78.19284 33945 ft 445 kts 359°
2026-05-07 14:26 32.52376 -78.18384 33938 ft 445 kts 359°
2026-05-07 14:26 32.58522 -78.17481 33942 ft 445 kts 359°
2026-05-07 14:27 32.64668 -78.16574 33948 ft 445 kts 359°
2026-05-07 14:27 32.70822 -78.15666 33939 ft 446 kts 359°
2026-05-07 14:28 32.76982 -78.14758 33946 ft 446 kts 359°
2026-05-07 14:28 32.83145 -78.13847 33942 ft 447 kts 359°
2026-05-07 14:29 32.89314 -78.12934 33942 ft 447 kts 359°
2026-05-07 14:29 32.95486 -78.12018 33933 ft 447 kts 359°
2026-05-07 14:30 33.01668 -78.11099 33935 ft 448 kts 359°
2026-05-07 14:30 33.07817 -78.10184 33936 ft 448 kts 359°
2026-05-07 14:31 33.14011 -78.09261 33937 ft 448 kts 359°
2026-05-07 14:31 33.20203 -78.08337 33936 ft 448 kts 359°
2026-05-07 14:32 33.26404 -78.07413 33936 ft 449 kts 359°
2026-05-07 14:32 33.32604 -78.06487 33940 ft 449 kts 359°
2026-05-07 14:33 33.38810 -78.05557 33935 ft 450 kts 359°
2026-05-07 14:33 33.45025 -78.04625 33939 ft 450 kts 359°
2026-05-07 14:34 33.51240 -78.03690 33935 ft 450 kts 359°
2026-05-07 14:34 33.57468 -78.02753 33935 ft 450 kts 359°
2026-05-07 14:35 33.63648 -78.01821 33937 ft 450 kts 359°
2026-05-07 14:35 33.69862 -78.00885 33934 ft 451 kts 359°
2026-05-07 14:36 33.76136 -77.99941 33981 ft 460 kts 359°
2026-05-07 14:36 33.79321 -77.99460 34202 ft 461 kts 359°
2026-05-07 14:36 33.82500 -77.98974 34587 ft 459 kts 359°
2026-05-07 14:36 33.85662 -77.98491 35023 ft 455 kts 358°
2026-05-07 14:37 33.88793 -77.98070 35376 ft 449 kts 355°
2026-05-07 14:37 33.94996 -77.97771 35935 ft 444 kts 352°
2026-05-07 14:37 33.98101 -77.97705 35914 ft 447 kts 351°
2026-05-07 14:38 34.04299 -77.97561 35928 ft 444 kts 352°
2026-05-07 14:38 34.10462 -77.97367 35927 ft 442 kts 352°
2026-05-07 14:39 34.16557 -77.97151 35929 ft 440 kts 352°
2026-05-07 14:39 34.22677 -77.96928 35920 ft 440 kts 352°
2026-05-07 14:40 34.28801 -77.96706 35921 ft 440 kts 352°
2026-05-07 14:40 34.34930 -77.96482 35918 ft 441 kts 352°
2026-05-07 14:41 34.41072 -77.96256 35919 ft 442 kts 352°
2026-05-07 14:41 34.47225 -77.96031 35921 ft 443 kts 352°
2026-05-07 14:42 34.53406 -77.95803 35912 ft 445 kts 352°
2026-05-07 14:42 34.59564 -77.95578 35919 ft 445 kts 352°
2026-05-07 14:43 34.65769 -77.95350 35918 ft 447 kts 352°
2026-05-07 14:43 34.71996 -77.95121 35914 ft 448 kts 352°
2026-05-07 14:44 34.77173 -77.94930 35919 ft 448 kts 351°
2026-05-07 14:44 34.83417 -77.94698 35914 ft 449 kts 351°
2026-05-07 14:45 34.89658 -77.94467 35911 ft 449 kts 351°
2026-05-07 14:45 34.95908 -77.94234 35918 ft 449 kts 351°
2026-05-07 14:46 35.02151 -77.94003 35915 ft 449 kts 351°
2026-05-07 14:46 35.08395 -77.93771 35917 ft 449 kts 351°
2026-05-07 14:47 35.14646 -77.93537 35918 ft 449 kts 351°
2026-05-07 14:47 35.20894 -77.93304 35919 ft 449 kts 351°
2026-05-07 14:48 35.27149 -77.93073 35906 ft 450 kts 351°
2026-05-07 14:48 35.33420 -77.92818 35905 ft 452 kts 351°
2026-05-07 14:49 35.39725 -77.92373 35897 ft 454 kts 353°
2026-05-07 14:49 35.46037 -77.91867 35913 ft 454 kts 352°
2026-05-07 14:50 35.52349 -77.91377 35917 ft 455 kts 352°
2026-05-07 14:50 35.58631 -77.90905 35921 ft 455 kts 352°
2026-05-07 14:51 35.64959 -77.90435 35911 ft 456 kts 352°
2026-05-07 14:51 35.71308 -77.89963 35912 ft 457 kts 352°
2026-05-07 14:52 35.77667 -77.89492 35901 ft 458 kts 352°
2026-05-07 14:52 35.84037 -77.89016 35900 ft 459 kts 352°
2026-05-07 14:53 35.90418 -77.88538 35900 ft 459 kts 352°
2026-05-07 14:53 35.96807 -77.88058 35896 ft 460 kts 352°
2026-05-07 14:54 36.03188 -77.87579 35899 ft 459 kts 352°
2026-05-07 14:54 36.09577 -77.87100 35901 ft 459 kts 352°
2026-05-07 14:55 36.15956 -77.86617 35906 ft 459 kts 352°
2026-05-07 14:55 36.22327 -77.86137 35915 ft 458 kts 352°
2026-05-07 14:56 36.28657 -77.85659 35912 ft 458 kts 352°
2026-05-07 14:56 36.35023 -77.85174 35918 ft 458 kts 352°
2026-05-07 14:57 36.41379 -77.84696 35927 ft 457 kts 351°
2026-05-07 14:57 36.47732 -77.84221 35935 ft 456 kts 350°
2026-05-07 14:58 36.54040 -77.84062 35940 ft 452 kts 348°
2026-05-07 14:58 36.60333 -77.84038 35948 ft 452 kts 347°
2026-05-07 14:59 36.66640 -77.83982 35957 ft 453 kts 348°
2026-05-07 14:59 36.72958 -77.83892 35952 ft 454 kts 348°
2026-05-07 15:00 36.79313 -77.83795 35546 ft 461 kts 348°
2026-05-07 15:00 36.82512 -77.83744 35111 ft 458 kts 348°
2026-05-07 15:00 36.85688 -77.83686 34605 ft 454 kts 347°
2026-05-07 15:01 36.88824 -77.83629 34118 ft 449 kts 347°
2026-05-07 15:01 36.91937 -77.83574 33628 ft 444 kts 347°
2026-05-07 15:01 36.95015 -77.83523 33141 ft 440 kts 347°
2026-05-07 15:01 36.98069 -77.83475 32653 ft 436 kts 347°
2026-05-07 15:02 37.01087 -77.83428 32176 ft 433 kts 347°
2026-05-07 15:02 37.04055 -77.83382 31708 ft 429 kts 346°
2026-05-07 15:02 37.07029 -77.83338 31233 ft 427 kts 346°
2026-05-07 15:02 37.09987 -77.83293 30760 ft 423 kts 346°
2026-05-07 15:03 37.12922 -77.83248 30291 ft 421 kts 346°
2026-05-07 15:03 37.15839 -77.83203 29832 ft 418 kts 346°
2026-05-07 15:03 37.18735 -77.83158 29377 ft 415 kts 346°
2026-05-07 15:03 37.21616 -77.83112 28913 ft 412 kts 346°
2026-05-07 15:04 37.24481 -77.83068 28390 ft 411 kts 346°
2026-05-07 15:04 37.27339 -77.83026 27894 ft 410 kts 346°
2026-05-07 15:04 37.30178 -77.82981 27448 ft 407 kts 346°
2026-05-07 15:04 37.33003 -77.82937 26997 ft 404 kts 346°
2026-05-07 15:05 37.35800 -77.82894 26558 ft 401 kts 346°
2026-05-07 15:05 37.38576 -77.82853 26120 ft 398 kts 346°
2026-05-07 15:05 37.41333 -77.82813 25680 ft 395 kts 346°
2026-05-07 15:05 37.44070 -77.82771 25258 ft 391 kts 346°
2026-05-07 15:06 37.46779 -77.82730 24839 ft 388 kts 346°
2026-05-07 15:06 37.49469 -77.82691 24424 ft 385 kts 346°
2026-05-07 15:06 37.52134 -77.82654 24012 ft 382 kts 346°
2026-05-07 15:06 37.54780 -77.82616 23588 ft 379 kts 346°
2026-05-07 15:07 37.57418 -77.82579 23180 ft 377 kts 346°
2026-05-07 15:07 37.60029 -77.82542 22770 ft 374 kts 347°
2026-05-07 15:07 37.62625 -77.82505 22347 ft 373 kts 349°
2026-05-07 15:07 37.65225 -77.82366 21954 ft 380 kts 359°
2026-05-07 15:08 37.67809 -77.81295 21469 ft 400 kts 15°
2026-05-07 15:08 37.70362 -77.79834 20968 ft 404 kts 16°
2026-05-07 15:08 37.72898 -77.78361 20448 ft 407 kts 16°
2026-05-07 15:08 37.75477 -77.76882 19914 ft 408 kts 15°
2026-05-07 15:09 37.78066 -77.75418 19380 ft 408 kts 15°
2026-05-07 15:09 37.80661 -77.73961 18850 ft 408 kts 14°
2026-05-07 15:09 37.83256 -77.72517 18323 ft 407 kts 14°
2026-05-07 15:09 37.85848 -77.71075 17792 ft 407 kts 13°
2026-05-07 15:10 37.88432 -77.69637 17270 ft 405 kts 14°
2026-05-07 15:10 37.91012 -77.68197 16749 ft 404 kts 14°
2026-05-07 15:10 37.93582 -77.66759 16225 ft 403 kts 15°
2026-05-07 15:10 37.96144 -77.65328 15707 ft 401 kts 15°
2026-05-07 15:11 37.98687 -77.63908 15189 ft 398 kts 15°
2026-05-07 15:11 38.01218 -77.62492 14675 ft 396 kts 16°
2026-05-07 15:11 38.03725 -77.61088 14161 ft 393 kts 16°
2026-05-07 15:11 38.06218 -77.59684 13658 ft 391 kts 18°
2026-05-07 15:12 38.08655 -77.58170 13152 ft 389 kts 20°
2026-05-07 15:12 38.11051 -77.56609 12649 ft 385 kts 21°
2026-05-07 15:12 38.13427 -77.55069 12146 ft 382 kts 21°
2026-05-07 15:12 38.15790 -77.53554 11651 ft 378 kts 21°
2026-05-07 15:13 38.18126 -77.52062 11165 ft 374 kts 21°
2026-05-07 15:13 38.20447 -77.50579 10663 ft 370 kts 21°
2026-05-07 15:13 38.22736 -77.49116 10197 ft 367 kts 22°
2026-05-07 15:13 38.25039 -77.47808 9848 ft 355 kts 13°
2026-05-07 15:14 38.27343 -77.47017 9860 ft 334 kts
2026-05-07 15:14 38.29550 -77.46316 9777 ft 319 kts
2026-05-07 15:14 38.31677 -77.45732 9691 ft 307 kts
2026-05-07 15:14 38.33734 -77.45236 9594 ft 294 kts
2026-05-07 15:15 38.35728 -77.44802 9364 ft 288 kts
2026-05-07 15:15 38.37706 -77.44379 9028 ft 288 kts
2026-05-07 15:15 38.39669 -77.43915 8727 ft 286 kts
2026-05-07 15:15 38.41613 -77.43406 8447 ft 284 kts
2026-05-07 15:16 38.43541 -77.42883 8164 ft 281 kts
2026-05-07 15:16 38.45443 -77.42362 7896 ft 278 kts
2026-05-07 15:16 38.47322 -77.41838 7713 ft 274 kts
2026-05-07 15:16 38.49173 -77.41293 7576 ft 272 kts
2026-05-07 15:17 38.51002 -77.40733 7504 ft 269 kts
2026-05-07 15:17 38.52834 -77.40638 7294 ft 260 kts 340°
2026-05-07 15:17 38.54413 -77.41630 7224 ft 253 kts 320°
2026-05-07 15:17 38.55749 -77.43090 7104 ft 254 kts 318°
2026-05-07 15:18 38.57364 -77.44090 6804 ft 269 kts 348°
2026-05-07 15:18 38.59247 -77.44189 6484 ft 272 kts 358°
2026-05-07 15:18 38.61146 -77.44149 6099 ft 273 kts 359°
2026-05-07 15:18 38.63036 -77.44103 5789 ft 269 kts 359°
2026-05-07 15:19 38.64899 -77.44060 5491 ft 266 kts 359°
2026-05-07 15:19 38.66744 -77.44039 5193 ft 264 kts 358°
2026-05-07 15:19 38.68553 -77.44008 4866 ft 262 kts 360°
2026-05-07 15:19 38.70373 -77.43969 4561 ft 259 kts 359°
2026-05-07 15:20 38.72147 -77.43944 4221 ft 251 kts 359°
2026-05-07 15:20 38.73861 -77.43921 3895 ft 242 kts 360°
2026-05-07 15:20 38.75520 -77.43897 3587 ft 235 kts
2026-05-07 15:20 38.77153 -77.43873 3286 ft 235 kts
2026-05-07 15:21 38.78783 -77.43850 2955 ft 232 kts
2026-05-07 15:21 38.80361 -77.43825 2676 ft 221 kts
2026-05-07 15:21 38.81835 -77.43803 2386 ft 203 kts
2026-05-07 15:21 38.83183 -77.43783 2130 ft 185 kts
2026-05-07 15:22 38.84418 -77.43762 1880 ft 169 kts
2026-05-07 15:22 38.85530 -77.43747 1678 ft 151 kts 360°
2026-05-07 15:22 38.86552 -77.43732 1472 ft 148 kts 359°
2026-05-07 15:22 38.87574 -77.43717 1295 ft 146 kts
2026-05-07 15:23 38.88582 -77.43702 1084 ft 143 kts
2026-05-07 15:23 38.89581 -77.43686 897 ft 143 kts
2026-05-07 15:23 38.90565 -77.43671 697 ft 141 kts
2026-05-07 15:23 38.91550 -77.43658 529 ft 142 kts
2026-05-07 15:24 38.92541 -77.43642 332 ft 142 kts
2026-05-07 15:24 38.93439 -77.43629 303 ft 105 kts
2026-05-07 15:24 38.93960 -77.43622 301 ft 44 kts
2026-05-07 15:24 38.94111 -77.43617 301 ft 19 kts
2026-05-07 15:25 38.94278 -77.43618 302 ft 26 kts 353°
2026-05-07 15:25 38.94444 -77.43688 298 ft 24 kts 334°
2026-05-07 15:25 38.94585 -77.43790 293 ft 23 kts 310°
2026-05-07 15:25 38.94565 -77.43852 294 ft 14 kts 205°
2026-05-07 15:26 38.94462 -77.43870 294 ft 15 kts 177°
2026-05-07 15:26 38.94404 -77.43943 294 ft 14 kts 276°
2026-05-07 15:26 38.94410 -77.44068 292 ft 14 kts 270°
2026-05-07 15:26 38.94410 -77.44188 294 ft 13 kts 270°
2026-05-07 15:27 38.94410 -77.44304 293 ft 13 kts 270°
2026-05-07 15:27 38.94412 -77.44416 293 ft 12 kts 273°
2026-05-07 15:27 38.94416 -77.44518 295 ft 2 kts 273°
2026-05-07 15:28 38.94416 -77.44521 291 ft 2 kts 273°
2026-05-07 15:28 38.94418 -77.44557 295 ft 10 kts 280°
2026-05-07 15:28 38.94459 -77.44648 296 ft 1 kts 348°
2026-05-07 15:28 38.94480 -77.44650 295 ft 8 kts
2026-05-07 15:29 38.94490 -77.44648 293 ft 0 kts